Hourly Weather Ruchkovo

Today, 16 June, Wednesday

Time Temperature Precipitation Wind Pressure Humidity
00:00 +15°C° 0 mm 2 mps 744 mmHg 86%
01:00 +14°C° 0 mm 2 mps 744 mmHg 89%
02:00 +13°C° 0 mm 2 mps 744 mmHg 93%
03:00 +14°C° 0 mm 2 mps 744 mmHg 92%
04:00 +15°C° 0 mm 2 mps 745 mmHg 92%
05:00 +16°C° 0 mm 2 mps 745 mmHg 92%
06:00 +17°C° 0.1 mm 3 mps 745 mmHg 83%
07:00 +18°C° 0.1 mm 3 mps 745 mmHg 74%
08:00 +20°C° 0 mm 3 mps 746 mmHg 63%
09:00 +20°C° 0 mm 4 mps 746 mmHg 56%
10:00 +21°C° 0 mm 4 mps 746 mmHg 49%
11:00 +22°C° 0 mm 4 mps 747 mmHg 42%
12:00 +23°C° 0 mm 4 mps 747 mmHg 40%
13:00 +23°C° 0 mm 4 mps 747 mmHg 39%
14:00 +23°C° 0 mm 4 mps 747 mmHg 37%
15:00 +24°C° 0 mm 3 mps 747 mmHg 40%
16:00 +22°C° 0 mm 3 mps 748 mmHg 43%
17:00 +22°C° 0 mm 3 mps 748 mmHg 46%
18:00 +20°C° 0 mm 2 mps 748 mmHg 53%
19:00 +18°C° 0 mm 2 mps 748 mmHg 59%
20:00 +16°C° 0 mm 2 mps 749 mmHg 66%
21:00 +15°C° 0 mm 2 mps 749 mmHg 66%
22:00 +14°C° 0 mm 1 mps 750 mmHg 66%
23:00 +13°C° 0 mm 1 mps 750 mmHg 66%

Tomorrow, 17 June, Thursday

Time Temperature Precipitation Wind Pressure Humidity
00:00 +13°C° 0 mm 1 mps 751 mmHg 69%
01:00 +12°C° 0 mm 2 mps 751 mmHg 71%
02:00 +10°C° 0 mm 2 mps 752 mmHg 74%
03:00 +12°C° 0 mm 1 mps 752 mmHg 73%
04:00 +13°C° 0 mm 1 mps 752 mmHg 72%
05:00 +14°C° 0 mm 1 mps 753 mmHg 72%
06:00 +16°C° 0 mm 1 mps 753 mmHg 64%
07:00 +18°C° 0 mm 1 mps 753 mmHg 57%
08:00 +20°C° 0 mm 1 mps 754 mmHg 50%
09:00 +22°C° 0 mm 1 mps 754 mmHg 46%
10:00 +23°C° 0 mm 1 mps 754 mmHg 42%
11:00 +24°C° 0 mm 1 mps 754 mmHg 39%
12:00 +25°C° 0 mm 1 mps 754 mmHg 38%
13:00 +25°C° 0 mm 1 mps 754 mmHg 37%
14:00 +25°C° 0 mm 1 mps 754 mmHg 37%
15:00 +25°C° 0 mm 1 mps 754 mmHg 39%
16:00 +25°C° 0 mm 1 mps 754 mmHg 42%
17:00 +25°C° 0 mm 1 mps 754 mmHg 45%
18:00 +23°C° 0 mm 1 mps 754 mmHg 53%
19:00 +21°C° 0 mm 1 mps 754 mmHg 62%
20:00 +18°C° 0 mm 2 mps 754 mmHg 70%
21:00 +18°C° 0 mm 1 mps 754 mmHg 71%
22:00 +16°C° 0 mm 1 mps 755 mmHg 73%
23:00 +15°C° 0 mm 1 mps 755 mmHg 74%

Day after tomorrow, 18 June, Friday

Time Temperature Precipitation Wind Pressure Humidity
00:00 +15°C° 0 mm 1 mps 755 mmHg 76%
01:00 +14°C° 0 mm 1 mps 755 mmHg 77%
02:00 +14°C° 0 mm 1 mps 755 mmHg 79%
03:00 +14°C° 0 mm 1 mps 756 mmHg 78%
04:00 +15°C° 0 mm 1 mps 756 mmHg 77%
05:00 +16°C° 0 mm 1 mps 756 mmHg 77%
06:00 +19°C° 0 mm 1 mps 756 mmHg 69%
07:00 +21°C° 0 mm 1 mps 756 mmHg 62%
08:00 +23°C° 0 mm 2 mps 756 mmHg 55%
09:00 +24°C° 0 mm 2 mps 756 mmHg 51%
10:00 +25°C° 0 mm 2 mps 756 mmHg 47%
11:00 +26°C° 0 mm 2 mps 756 mmHg 43%
12:00 +27°C° 0 mm 2 mps 756 mmHg 43%
13:00 +27°C° 0 mm 3 mps 755 mmHg 43%
14:00 +28°C° 0 mm 3 mps 755 mmHg 43%
15:00 +27°C° 0 mm 3 mps 755 mmHg 46%
16:00 +27°C° 0 mm 2 mps 755 mmHg 50%
17:00 +27°C° 0 mm 2 mps 754 mmHg 54%
18:00 +25°C° 0 mm 2 mps 754 mmHg 62%
19:00 +23°C° 0 mm 2 mps 754 mmHg 70%
20:00 +20°C° 0 mm 2 mps 754 mmHg 78%
21:00 +19°C° 0 mm 2 mps 755 mmHg 80%
22:00 +18°C° 0 mm 2 mps 755 mmHg 81%
23:00 +17°C° 0 mm 2 mps 755 mmHg 83%

19 June, Saturday

Time Temperature Precipitation Wind Pressure Humidity
00:00 +16°C° 0 mm 3 mps 755 mmHg 85%
01:00 +16°C° 0 mm 3 mps 755 mmHg 87%
02:00 +16°C° 0 mm 3 mps 755 mmHg 89%
03:00 +16°C° 0 mm 2 mps 755 mmHg 87%
04:00 +17°C° 0 mm 2 mps 755 mmHg 85%
05:00 +17°C° 0 mm 2 mps 756 mmHg 84%
06:00 +19°C° 0 mm 2 mps 755 mmHg 77%
07:00 +21°C° 0 mm 3 mps 755 mmHg 70%
08:00 +24°C° 0 mm 3 mps 755 mmHg 63%
09:00 +25°C° 0 mm 3 mps 755 mmHg 59%
10:00 +26°C° 0 mm 3 mps 755 mmHg 55%
11:00 +27°C° 0 mm 3 mps 755 mmHg 51%
12:00 +28°C° 0 mm 3 mps 755 mmHg 50%
13:00 +28°C° 0 mm 3 mps 754 mmHg 48%
14:00 +28°C° 0 mm 3 mps 754 mmHg 46%
15:00 +28°C° 0 mm 3 mps 754 mmHg 49%
16:00 +28°C° 0 mm 3 mps 754 mmHg 52%
17:00 +27°C° 0 mm 3 mps 753 mmHg 55%
18:00 +25°C° 0 mm 2 mps 753 mmHg 63%
19:00 +24°C° 0 mm 2 mps 753 mmHg 71%
20:00 +21°C° 0 mm 2 mps 753 mmHg 79%
21:00 +20°C° 0 mm 2 mps 753 mmHg 81%
22:00 +18°C° 0 mm 2 mps 753 mmHg 83%
23:00 +17°C° 0 mm 2 mps 753 mmHg 84%

20 June, Sunday

Time Temperature Precipitation Wind Pressure Humidity
00:00 +17°C° 0 mm 2 mps 754 mmHg 86%
01:00 +16°C° 0 mm 2 mps 754 mmHg 87%
02:00 +16°C° 0 mm 2 mps 754 mmHg 88%
03:00 +16°C° 0 mm 2 mps 754 mmHg 86%
04:00 +17°C° 0 mm 2 mps 754 mmHg 84%
05:00 +17°C° 0 mm 2 mps 754 mmHg 83%
06:00 +19°C° 0 mm 2 mps 754 mmHg 76%
07:00 +21°C° 0 mm 2 mps 754 mmHg 69%
08:00 +24°C° 0 mm 2 mps 753 mmHg 62%
09:00 +25°C° 0 mm 3 mps 753 mmHg 57%
10:00 +26°C° 0 mm 3 mps 753 mmHg 53%
11:00 +27°C° 0 mm 3 mps 753 mmHg 48%
12:00 +28°C° 0 mm 3 mps 753 mmHg 47%
13:00 +28°C° 0 mm 3 mps 752 mmHg 45%
14:00 +29°C° 0 mm 3 mps 752 mmHg 43%
15:00 +29°C° 0 mm 3 mps 752 mmHg 47%
16:00 +28°C° 0 mm 3 mps 752 mmHg 50%
17:00 +28°C° 0 mm 3 mps 751 mmHg 54%
18:00 +26°C° 0 mm 2 mps 751 mmHg 62%
19:00 +24°C° 0 mm 2 mps 751 mmHg 71%
20:00 +21°C° 0 mm 2 mps 751 mmHg 79%
21:00 +21°C° 0 mm 2 mps 751 mmHg 81%
22:00 +20°C° 0 mm 2 mps 751 mmHg 83%
23:00 +19°C° 0 mm 2 mps 751 mmHg 85%

21 June, Monday

Time Temperature Precipitation Wind Pressure Humidity
00:00 +18°C° 0 mm 2 mps 751 mmHg 87%
01:00 +18°C° 0 mm 2 mps 751 mmHg 89%
02:00 +18°C° 0 mm 2 mps 751 mmHg 91%
03:00 +18°C° 0 mm 2 mps 751 mmHg 89%
04:00 +19°C° 0 mm 2 mps 752 mmHg 87%
05:00 +20°C° 0 mm 2 mps 752 mmHg 86%
06:00 +21°C° 0 mm 2 mps 752 mmHg 79%
07:00 +24°C° 0 mm 2 mps 752 mmHg 72%
08:00 +26°C° 0 mm 2 mps 752 mmHg 65%
09:00 +27°C° 0 mm 2 mps 752 mmHg 60%
10:00 +28°C° 0 mm 2 mps 752 mmHg 55%
11:00 +30°C° 0 mm 2 mps 751 mmHg 51%
12:00 +30°C° 0 mm 2 mps 751 mmHg 49%
13:00 +31°C° 0 mm 2 mps 751 mmHg 47%
14:00 +31°C° 0 mm 2 mps 751 mmHg 46%
15:00 +31°C° 0 mm 2 mps 751 mmHg 48%
16:00 +31°C° 0 mm 2 mps 751 mmHg 51%
17:00 +30°C° 0 mm 2 mps 751 mmHg 53%
18:00 +28°C° 0 mm 2 mps 751 mmHg 61%
19:00 +27°C° 0 mm 2 mps 751 mmHg 68%
20:00 +25°C° 0 mm 2 mps 751 mmHg 76%
21:00 +24°C° 0 mm 2 mps 751 mmHg 78%
22:00 +23°C° 0 mm 2 mps 751 mmHg 80%
23:00 +21°C° 0 mm 2 mps 751 mmHg 83%
Show more